Location: Blankensee
(53.5126°N, 14.3055°E)
Time: 18:00:34
(UTC+00:00)

SL-08 R/B - Pass Details

Date: 08 August 2020
Orbit: 673 x 740 km, 98.4° (Epoch: 19 September)

Event Time Altitude Azimuth Distance (km) Brightness Sun altitude
Exits shadow 01:49:41 - 170° (S) 2,747 6.0 -12.3°
Reaches altitude 10° 01:50:56 10° 171° (S) 2,244 5.5 -12.2°
Maximum altitude 01:55:53 72° 256° (WSW) 785 3.4 -11.7°
Drops below altitude 10° 02:00:52 10° 341° (NNW) 2,260 6.3 -11.3°
Sets 02:03:10 0° 344° (NNW) 3,184 7.2 -11.0°
